GORIZONT 11 1 15484U 85007A 21056.26921507 -.00000112 00000-0 00000-0 0 9993 2 15484 12.5510 330.8059 0003233 69.3711 198.9590 1.00284032133192 SL-12 R/B(2) 1 15487U 85007D 21056.79493562 -.00000178 00000-0 00000+0 0 9990 2 15487 11.2832 326.8715 0012819 252.8792 294.6178 1.03025164135864